Change the Weather History Date:

Sunday, March 16, 2014

  Actual Average (KESC) Record (KESC)
Temperature  
Mean Temperature 7 °F -  
Max Temperature 21 °F 35 °F 55 °F (2012)
Min Temperature -7 °F 19 °F -10 °F (1989)
Degree Days  
Heating Degree Days 58    
Moisture  
Dew Point -4 °F    
Average Humidity 68    
Maximum Humidity 85    
Minimum Humidity 33    
Precipitation  
Precipitation 0.00 in - - ()
Sea Level Pressure  
Sea Level Pressure 30.35 in    
Wind  
Wind Speed 9 mph (NNE)    
Max Wind Speed 16 mph    
Max Gust Speed 22 mph    
Visibility 9 miles    
Events      
Averages and records for this station are not official NWS values.
T = Trace of Precipitation, MM = Missing Value Source: NWS Daily Summary

Daily Weather History Graph

Daily Weather History Graph

Search for Another Location

Airport or City:

Trip Planner

Search our weather history database for the weather conditions in past years. The results will help you decide how hot, cold, wet, or windy it might be!

Date:

Astronomy

Mar. 16, 2014 Rise Set
Actual Time 8:00 AM EDT 7:56 PM EDT
Civil Twilight 7:30 AM EDT 8:26 PM EDT
Nautical Twilight 6:55 AM EDT 9:01 PM EDT
Astronomical Twilight 6:19 AM EDT 9:37 PM EDT
Moon 8:16 PM EDT (3/16) 7:42 AM EDT (3/16)
Length of Visible Light 12h 56m
Length of Day
11h 56m
Full, 100% of the Moon is Illuminated
Mar 16
Full
Mar 16
Full
Mar 23
Last Quarter
Mar 30
New
Apr 7
First Quarter

Hourly Weather History & Observations

Time (EDT) Temp. Windchill Dew Point Humidity Pressure Visibility Wind Dir Wind Speed Gust Speed Precip Events Conditions
12:17 AM 3.4 °F -15.0 °F -4.0 °F 71% 30.39 in 7.0 mi North 15.0 mph - N/A   Clear
12:36 AM 2.7 °F -16.6 °F -4.0 °F 74% 30.39 in 10.0 mi North 16.1 mph 21.9 mph N/A   Clear
12:57 AM 2.5 °F -16.2 °F -4.0 °F 74% 30.39 in 10.0 mi North 15.0 mph - N/A   Clear
1:16 AM 2.3 °F -14.2 °F -4.2 °F 74% 30.40 in 10.0 mi North 11.5 mph - N/A   Clear
1:37 AM 1.4 °F -16.1 °F -5.3 °F 74% 30.41 in 10.0 mi North 12.7 mph - N/A   Clear
1:56 AM 0.5 °F -15.6 °F -6.0 °F 74% 30.41 in 10.0 mi North 10.4 mph - N/A   Clear
2:17 AM 0.7 °F -15.4 °F -5.1 °F 77% 30.41 in 10.0 mi North 10.4 mph - N/A   Scattered Clouds
2:36 AM -0.0 °F -13.0 °F -5.4 °F 78% 30.42 in 10.0 mi NNE 6.9 mph - N/A   Mostly Cloudy
2:57 AM 0.3 °F -12.6 °F -4.7 °F 79% 30.43 in 10.0 mi North 6.9 mph - N/A   Overcast
3:16 AM 0.3 °F -13.8 °F -4.4 °F 81% 30.43 in 10.0 mi North 8.1 mph - N/A   Mostly Cloudy
3:36 AM 0.7 °F -12.1 °F -3.8 °F 81% 30.43 in 10.0 mi North 6.9 mph - N/A   Mostly Cloudy
3:56 AM 3.2 °F -9.1 °F -1.7 °F 80% 30.43 in 7.0 mi NNE 6.9 mph - N/A   Overcast
4:16 AM 2.7 °F -10.9 °F -2.0 °F 81% 30.44 in 7.0 mi NNE 8.1 mph - N/A   Overcast
4:37 AM 3.0 °F -8.0 °F -1.5 °F 82% 30.43 in 5.0 mi NNE 5.8 mph - N/A   Haze
4:56 AM 3.0 °F -9.3 °F -1.8 °F 80% 30.43 in 5.0 mi NNE 6.9 mph - N/A   Haze
5:16 AM 2.7 °F -9.7 °F -2.4 °F 79% 30.44 in 7.0 mi NNE 6.9 mph - N/A   Overcast
5:37 AM 2.3 °F -8.8 °F -2.7 °F 79% 30.44 in 7.0 mi NNE 5.8 mph - N/A   Overcast
5:56 AM 2.1 °F -9.0 °F -3.3 °F 78% 30.45 in 7.0 mi NNE 5.8 mph - N/A   Overcast
6:45 AM -4.0 °F - -7.6 °F 85% 30.45 in 10.0 mi Calm Calm - N/A   Scattered Clouds
7:45 AM -7.6 °F -16.5 °F -11.2 °F 84% 30.44 in 10.0 mi NNW 3.5 mph - N/A   Clear
8:45 AM -4.0 °F -12.4 °F -7.6 °F 85% 30.44 in 10.0 mi NW 3.5 mph - N/A   Clear
9:45 AM -2.2 °F -10.4 °F -5.8 °F 85% 30.43 in 10.0 mi North 3.5 mph - N/A   Clear
10:45 AM 3.2 °F -9.1 °F -4.0 °F 72% 30.43 in 10.0 mi North 6.9 mph - N/A   Clear
11:45 AM 6.8 °F -0.1 °F -2.2 °F 67% 30.43 in 10.0 mi North 3.5 mph - N/A   Clear
12:45 PM 10.4 °F - -2.2 °F 57% 30.41 in 10.0 mi Calm Calm - N/A   Clear
1:50 PM 12.2 °F 6.1 °F -2.2 °F 53% 30.39 in 10.0 mi South 3.5 mph - N/A   Clear
2:45 PM 14.0 °F - -2.2 °F 49% 30.35 in 10.0 mi Calm Calm - N/A   Clear
3:50 PM 15.8 °F 10.2 °F -2.2 °F 45% 30.32 in 10.0 mi NE 3.5 mph - N/A   Clear
4:50 PM 19.4 °F 11.5 °F -2.2 °F 39% 30.29 in 10.0 mi SE 5.8 mph - N/A   Clear
5:50 PM 21.2 °F - -4.0 °F 33% 30.25 in 10.0 mi Calm Calm - N/A   Clear
6:50 PM 19.4 °F 10.4 °F -5.8 °F 33% 30.23 in 10.0 mi South 6.9 mph - N/A   Clear
7:50 PM 19.4 °F 11.5 °F -4.0 °F 36% 30.20 in 10.0 mi South 5.8 mph - N/A   Clear
8:50 PM 14.0 °F 2.0 °F 1.4 °F 57% 30.19 in 10.0 mi South 9.2 mph - N/A   Clear
9:55 PM 10.4 °F -3.3 °F -0.4 °F 62% 30.17 in 10.0 mi South 10.4 mph - N/A   Clear
10:17 PM 9.1 °F -4.0 °F -1.8 °F 61% 30.17 in 10.0 mi South 9.2 mph - N/A   Clear
10:36 PM 8.6 °F -5.5 °F -1.8 °F 63% 30.16 in 10.0 mi South 10.4 mph - N/A   Clear
10:57 PM 7.9 °F -5.5 °F -2.0 °F 64% 30.15 in 10.0 mi South 9.2 mph - N/A   Clear
11:16 PM 7.0 °F -6.6 °F -3.1 °F 63% 30.15 in 10.0 mi SSW 9.2 mph - N/A   Clear
11:36 PM 6.6 °F -7.1 °F -3.5 °F 63% 30.15 in 10.0 mi South 9.2 mph - N/A   Clear
11:56 PM 6.4 °F -7.3 °F -3.1 °F 65% 30.14 in 10.0 mi South 9.2 mph - N/A   Clear